Lyndonville, VT

10:39 AM EST on November 12, 2019 (GMT -0500)
Lyndonville

Weather History for KCDA - August, 2019

Change the Weather History Date:

Tuesday, August 20, 2019

  Actual Average (K1V4) Record (K1V4)
Temperature  
Mean Temperature 68 °F -  
Max Temperature 80 °F 75 °F 84 °F (2015)
Min Temperature 56 °F 52 °F 42 °F (2007)
Cooling Degree Days 3    
Growing Degree Days 18 (Base 50)    
Moisture  
Dew Point 56 °F    
Average Humidity 65    
Maximum Humidity 95    
Minimum Humidity 38    
Precipitation  
Precipitation 0.00 in - - ()
Sea Level Pressure  
Sea Level Pressure 30.09 in    
Wind  
Wind Speed 1 mph (SSW)    
Max Wind Speed 8 mph    
Max Gust Speed -    
Visibility 10 miles    
Events      
Averages and records for this station are not official NWS values.
T = Trace of Precipitation, MM = Missing Value Source: NWS Daily Summary

Daily Weather History Graph

Daily Weather History Graph

Search for Another Location

Airport or City:

Astronomy

Aug. 20, 2019 Rise Set
Actual Time 5:56 AM EDT 7:45 PM EDT
Civil Twilight 5:25 AM EDT 8:16 PM EDT
Nautical Twilight 4:47 AM EDT 8:54 PM EDT
Astronomical Twilight 4:05 AM EDT 9:35 PM EDT
Moon 10:21 PM EDT (8/20) 10:41 AM EDT (8/20)
Length of Visible Light 14h 51m
Length of Day
13h 49m
Waning Gibbous, 78% of the Moon is Illuminated
Aug 20
Waning Gibbous
Aug 23
Last Quarter
Aug 30
New
Sep 5
First Quarter
Sep 14
Full

Hourly Weather History & Observations

Time (EDT) Temp. Dew Point Humidity Pressure Visibility Wind Dir Wind Speed Gust Speed Precip Events Conditions
12:17 AM 68.9 °F 59.0 °F 71% 30.02 in 10.0 mi Calm Calm - N/A   Clear
12:36 AM 67.8 °F 59.0 °F 73% 30.03 in 10.0 mi South 4.6 mph - N/A   Clear
12:56 AM 66.7 °F 58.6 °F 75% 30.03 in 10.0 mi Calm Calm - N/A   Clear
1:16 AM 65.7 °F 58.8 °F 79% 30.04 in 10.0 mi Calm Calm - N/A   Clear
1:37 AM 66.2 °F 58.3 °F 76% 30.04 in 10.0 mi Calm Calm - N/A   Clear
1:56 AM 65.3 °F 57.7 °F 76% 30.05 in 10.0 mi Calm Calm - N/A   Clear
2:16 AM 64.4 °F 57.6 °F 78% 30.05 in 10.0 mi West 3.5 mph - N/A   Clear
2:36 AM 64.9 °F 57.9 °F 78% 30.05 in 10.0 mi West 5.8 mph - N/A   Clear
3:16 AM 65.3 °F 57.6 °F 76% 30.06 in 10.0 mi West 3.5 mph - N/A   Clear
3:37 AM 64.0 °F 57.2 °F 78% 30.06 in 10.0 mi Calm Calm - N/A   Clear
3:56 AM 63.7 °F 57.2 °F 79% 30.07 in 10.0 mi Calm Calm - N/A   Clear
4:18 AM 62.6 °F 57.2 °F 82% 30.07 in 10.0 mi Calm Calm - N/A   Clear
4:36 AM 61.7 °F 56.7 °F 84% 30.08 in 10.0 mi Calm Calm - N/A   Clear
4:59 AM 62.4 °F 56.8 °F 82% 30.08 in 10.0 mi WSW 4.6 mph - N/A   Clear
5:16 AM 59.2 °F 56.1 °F 90% 30.09 in 10.0 mi WSW 3.5 mph - N/A   Clear
5:35 AM 59.9 °F 56.5 °F 88% 30.09 in 10.0 mi West 3.5 mph - N/A   Clear
5:57 AM 58.3 °F 55.6 °F 91% 30.10 in 10.0 mi Calm Calm - N/A   Clear
6:16 AM 57.2 °F 55.6 °F 94% 30.10 in 10.0 mi Calm Calm - N/A   Clear
6:36 AM 56.8 °F 55.2 °F 94% 30.11 in 7.0 mi Calm Calm - N/A   Clear
6:56 AM 58.1 °F 56.7 °F 95% 30.11 in 10.0 mi Calm Calm - N/A   Clear
7:17 AM 59.4 °F 57.6 °F 94% 30.12 in 10.0 mi Calm Calm - N/A   Clear
7:35 AM 61.2 °F 58.1 °F 90% 30.12 in 10.0 mi Calm Calm - N/A   Clear
8:00 AM 61.5 °F 58.3 °F 89% 30.13 in 10.0 mi Calm Calm - N/A   Clear
8:16 AM 62.6 °F 58.5 °F 86% 30.13 in 10.0 mi Calm Calm - N/A   Clear
8:36 AM 63.0 °F 58.6 °F 86% 30.13 in 10.0 mi Calm Calm - N/A   Clear
8:58 AM 64.4 °F 59.2 °F 83% 30.13 in 10.0 mi Calm Calm - N/A   Clear
9:16 AM 66.2 °F 59.4 °F 79% 30.13 in 10.0 mi Calm Calm - N/A   Clear
9:37 AM 68.0 °F 56.8 °F 67% 30.14 in 10.0 mi Calm Calm - N/A   Clear
9:56 AM 69.1 °F 55.0 °F 61% 30.13 in 10.0 mi Calm Calm - N/A   Clear
10:18 AM 70.9 °F 55.4 °F 58% 30.13 in 10.0 mi Calm Calm - N/A   Clear
10:36 AM 71.6 °F 54.1 °F 54% 30.13 in 10.0 mi Calm Calm - N/A   Clear
10:58 AM 73.6 °F 56.7 °F 55% 30.13 in 10.0 mi Calm Calm - N/A   Clear
11:16 AM 72.9 °F 55.4 °F 54% 30.13 in 10.0 mi WSW 4.6 mph - N/A   Clear
11:35 AM 73.0 °F 54.5 °F 52% 30.13 in 10.0 mi Calm Calm - N/A   Clear
11:56 AM 74.8 °F 55.6 °F 51% 30.13 in 10.0 mi SSW 3.5 mph - N/A   Clear
12:20 PM 74.7 °F 53.8 °F 48% 30.12 in 10.0 mi NNE 3.5 mph - N/A   Clear
12:35 PM 74.7 °F 53.1 °F 47% 30.11 in 10.0 mi Calm Calm - N/A   Clear
1:00 PM 76.5 °F 53.1 °F 44% 30.11 in 10.0 mi Calm Calm - N/A   Clear
1:16 PM 76.6 °F 50.9 °F 40% 30.10 in 10.0 mi Calm Calm - N/A   Clear
1:40 PM 76.6 °F 51.3 °F 41% 30.10 in 10.0 mi Calm Calm - N/A   Clear
1:55 PM 77.2 °F 49.8 °F 38% 30.09 in 10.0 mi Calm Calm - N/A   Clear
2:20 PM 77.7 °F 52.9 °F 42% 30.10 in 10.0 mi ESE 5.8 mph - N/A   Clear
2:36 PM 77.5 °F 52.2 °F 41% 30.10 in 10.0 mi Calm Calm - N/A   Clear
2:55 PM 78.3 °F 53.4 °F 42% 30.10 in 10.0 mi Calm Calm - N/A   Clear
3:15 PM 78.8 °F 54.1 °F 42% 30.10 in 10.0 mi Calm Calm - N/A   Clear
3:40 PM 79.2 °F 54.0 °F 42% 30.09 in 10.0 mi South 4.6 mph - N/A   Clear
3:56 PM 80.1 °F 52.2 °F 38% 30.09 in 10.0 mi South 8.1 mph - N/A   Clear
4:20 PM 80.1 °F 52.3 °F 38% 30.09 in 10.0 mi South 6.9 mph - N/A   Clear
4:35 PM 80.1 °F 52.3 °F 38% 30.08 in 10.0 mi South 3.5 mph - N/A   Clear
5:00 PM 79.7 °F 54.0 °F 41% 30.08 in 10.0 mi SE 5.8 mph - N/A   Clear
5:15 PM 78.8 °F 53.4 °F 41% 30.08 in 10.0 mi South 6.9 mph - N/A   Clear
5:40 PM 79.0 °F 52.5 °F 40% 30.08 in 10.0 mi South 4.6 mph - N/A   Clear
5:55 PM 78.6 °F 53.8 °F 42% 30.07 in 10.0 mi SSW 3.5 mph - N/A   Clear
6:20 PM 78.3 °F 52.9 °F 41% 30.07 in 10.0 mi Calm Calm - N/A   Clear
6:35 PM 77.5 °F 54.3 °F 44% 30.07 in 10.0 mi Calm Calm - N/A   Clear
7:00 PM 76.6 °F 54.1 °F 46% 30.05 in 10.0 mi ESE 3.5 mph - N/A   Clear
7:15 PM 76.6 °F 52.5 °F 43% 30.05 in 10.0 mi Calm Calm - N/A   Clear
7:40 PM 74.5 °F 54.5 °F 50% 30.06 in 10.0 mi Calm Calm - N/A   Clear
7:55 PM 73.4 °F 55.6 °F 54% 30.06 in 10.0 mi Calm Calm - N/A   Clear
8:20 PM 68.2 °F 58.1 °F 70% 30.07 in 10.0 mi WSW 4.6 mph - N/A   Clear
8:36 PM 69.3 °F 57.2 °F 65% 30.06 in 10.0 mi Calm Calm - N/A   Clear
9:00 PM 65.1 °F 57.4 °F 76% 30.07 in 10.0 mi Calm Calm - N/A   Clear
9:16 PM 64.4 °F 56.5 °F 75% 30.07 in 10.0 mi NE 3.5 mph - N/A   Clear
9:40 PM 65.3 °F 56.7 °F 74% 30.08 in 10.0 mi Calm Calm - N/A   Clear
9:56 PM 65.3 °F 55.9 °F 72% 30.08 in 10.0 mi NE 3.5 mph - N/A   Clear
10:20 PM 61.3 °F 55.2 °F 80% 30.08 in 10.0 mi Calm Calm - N/A   Clear
10:35 PM 62.1 °F 55.2 °F 78% 30.08 in 10.0 mi Calm Calm - N/A   Clear
10:55 PM 60.8 °F 55.6 °F 83% 30.07 in 10.0 mi NNE 3.5 mph - N/A   Clear
11:40 PM 57.9 °F 55.4 °F 91% 30.07 in 10.0 mi Calm Calm - N/A   Clear
11:56 PM 58.5 °F 55.8 °F 91% 30.07 in 10.0 mi Calm Calm - N/A   Clear